Home > Time Zones > World Clock > Weather > Palau > Koror > Past weeks

Flag for Palau Weather past 2 weeks in Koror, Palau

Now
79 °F

Mostly cloudy.


Feels Like: 82 °F
Forecast: 81 / 87 °F
Wind: 10 mph from West

Location: Koror / Palau Island

Current Time: Aug 1, 2015 at 7:32:32 AM

Latest Report: Aug 1, 2015 at 5:50 AM


Visibility: 14 mi

Pressure: 29.79 "Hg

Humidity: 89%

Dew point: 75 °F

Location of KororLocation

Historic Weather in Koror — Graph

°F

Koror temperature yesterday

Maximum temperature yesterday: 84 °F (at 11:50 AM)
Minimum temperature yesterday: 75 °F (at 5:55 AM)
Average temperature yesterday: 80 °F

Past Weeks' High & Low Weather Summary

 TemperatureHumidityPressure
High88 °F (Jul 17, 11:55 AM)100% (Jul 18, 7:52 PM)29.97 "Hg (Jul 18, 7:52 PM)
Low75 °F (Jul 17, 5:50 AM)62% (Jul 17, 11:55 AM)29.34 "Hg (Jul 19, 4:53 AM)
Average81 °F86%29.86 "Hg
* Reported Jul 17 5:50 AM — Aug 1 5:50 AM, Koror, Weather by CustomWeather, © 2015

Note: Actual official high and low records may vary slightly from our data, if they occured in-between our weather recording intervals... More about our weather records

Advertising

Koror weather history for previous 24 hours

 ConditionsComfort  
Time TempWeatherWind HumidityBarometerVisibility
5:50 AM
Sat, Aug 1
79 °FMostly cloudy.10 mph89%29.79 "Hg14 mi
3:50 AM79 °FMostly cloudy.8 mph89%29.78 "Hg13 mi
2:50 AM79 °FSprinkles. Mostly cloudy.15 mph89%29.79 "Hg12 mi
1:50 AM79 °FMostly cloudy.12 mph89%29.79 "Hg13 mi
12:50 AM75 °FRain showers. Mostly cloudy.10 mph100%29.80 "Hg10 mi
11:50 PM
Fri, Jul 31
77 °FRain showers. Mostly cloudy.23 mph94%29.79 "Hg9 mi
10:51 PM79 °FMostly cloudy.9 mph94%29.80 "Hg13 mi
9:54 PM77 °FSprinkles. Mostly cloudy.13 mph94%29.80 "Hg12 mi
8:50 PM77 °FSprinkles. Mostly cloudy.10 mph94%29.79 "Hg10 mi
7:50 PM81 °FPartly cloudy.3 mph89%29.78 "Hg14 mi
6:54 PM82 °FMostly cloudy.10 mph79%29.76 "Hg14 mi
5:55 PM82 °FScattered showers. Mostly cloudy.14 mph79%29.75 "Hg13 mi
4:53 PM84 °FPartly sunny.10 mph79%29.72 "Hg14 mi
3:50 PM84 °FPartly sunny.13 mph79%29.71 "Hg14 mi
2:50 PM84 °FBroken clouds.14 mph74%29.73 "Hg14 mi
1:50 PM84 °FMostly cloudy.21 mph74%29.74 "Hg14 mi
12:50 PM84 °FMostly cloudy.16 mph79%29.77 "Hg14 mi
11:50 AM84 °FMostly cloudy.14 mph84%29.78 "Hg14 mi
10:50 AM81 °FMostly cloudy.12 mph89%29.78 "Hg14 mi
9:50 AM79 °FSprinkles. Mostly cloudy.7 mph94%29.80 "Hg11 mi
8:50 AM77 °FSprinkles. Mostly cloudy.9 mph94%29.81 "Hg8 mi
7:50 AM77 °FSprinkles. Mostly cloudy.9 mph94%29.83 "Hg12 mi
Weather by CustomWeather, © 2015

See weather overviewHow to use our weather pages